KN2B-13 Weather Reports


Display with metric or nautical units.
time (UTC)temp
F
wind
direction
speed
MPH
gust
MPH
rain 1hr
in
rain 24hr
in
rain mn
in
humidity
%
barometer
mb
20260506152957 63 180 7.0 13.0 0.01 0.01 0.01 86 1007.4
20260506151957 62 197 6.0 10.0 0.01 0.01 0.01 86 1007.6
20260506150957 62 169 6.0 12.0 0.01 0.01 0.01 85 1007.7
20260506143958 64 178 7.0 12.0 0.00 0.00 0.00 78 1008.1
20260506142958 64 209 7.0 10.0 0.00 0.00 0.00 77 1007.9
20260506141958 65 223 8.0 15.0 0.00 0.00 0.00 77 1007.8
20260506140958 64 208 9.0 15.0 0.00 0.00 0.00 76 1007.8
20260506135957 65 210 11.0 19.0 0.00 0.00 0.00 75 1007.7
20260506133957 65 246 9.0 15.0 0.00 0.00 0.00 73 1008.0
20260506131957 65 161 10.0 23.0 0.00 0.00 0.00 73 1008.0
20260506130957 65 223 11.0 19.0 0.00 0.00 0.00 73 1007.9
20260506125958 65 221 11.0 21.0 0.00 0.00 0.00 74 1007.9
20260506123957 65 217 10.0 17.0 0.00 0.00 0.00 74 1007.7
20260506121957 64 196 8.0 16.0 0.00 0.00 0.00 75 1007.8
20260506120957 64 188 8.0 12.0 0.00 0.00 0.00 75 1008.0
20260506115957 64 208 7.0 15.0 0.00 0.00 0.00 76 1008.1
20260506113956 64 181 7.0 15.0 0.00 0.00 0.00 76 1008.0
20260506112957 64 185 8.0 16.0 0.00 0.00 0.00 76 1008.1
20260506111957 64 191 8.0 12.0 0.00 0.00 0.00 76 1008.0
20260506110958 64 202 8.0 14.0 0.00 0.00 0.00 76 1007.9
20260506105959 64 190 8.0 13.0 0.00 0.00 0.00 76 1007.9
20260506104958 64 166 8.0 16.0 0.00 0.00 0.00 76 1007.8
20260506103957 64 230 8.0 14.0 0.00 0.00 0.00 76 1007.7
20260506102957 64 190 8.0 16.0 0.00 0.00 0.00 75 1007.7
20260506100957 64 170 8.0 17.0 0.00 0.00 0.00 75 1007.6
20260506094957 65 198 8.0 14.0 0.00 0.00 0.00 75 1007.5
20260506085956 65 209 8.0 14.0 0.00 0.00 0.00 72 1007.7
20260506084957 65 205 7.0 11.0 0.00 0.00 0.00 72 1007.8
20260506082957 65 202 8.0 12.0 0.00 0.00 0.00 70 1007.8
20260506081958 65 235 7.0 12.0 0.00 0.00 0.00 69 1007.7
20260506080957 65 232 7.0 12.0 0.00 0.00 0.00 68 1007.8
20260506072957 66 200 8.0 14.0 0.00 0.00 0.00 64 1007.9
20260506071957 67 180 7.0 12.0 0.00 0.00 0.00 63 1007.9
20260506070958 67 202 7.0 14.0 0.00 0.00 0.00 63 1007.9
20260506061958 68 200 8.0 15.0 0.00 0.00 0.00 60 1008.4
20260506060957 68 224 7.0 14.0 0.00 0.00 0.00 60 1008.3
20260506044958 68 196 7.0 12.0 0.00 0.00 0.00 59 1008.8
20260506043959 68 229 7.0 11.0 0.00 0.00 0.00 59 1008.8
20260506042959 68 255 7.0 12.0 0.00 0.00 0.00 58 1008.7
20260506041958 69 229 7.0 19.0 0.00 0.00 0.00 58 1008.6
20260506040959 69 207 9.0 16.0 0.00 0.00 0.00 57 1008.6
20260506035959 69 239 9.0 17.0 0.00 0.00 0.00 56 1008.6
20260506034959 70 188 8.0 16.0 0.00 0.00 0.00 54 1008.5
20260506034000 70 189 7.0 14.0 0.00 0.00 0.00 52 1008.5
20260506033000 70 204 7.0 13.0 0.00 0.00 0.00 51 1008.4
20260506031959 71 202 7.0 19.0 0.00 0.00 0.00 50 1008.4
20260506031000 71 198 7.0 11.0 0.00 0.00 0.00 49 1008.5
20260506024959 72 218 7.0 14.0 0.00 0.00 0.00 47 1008.3
20260506023958 72 215 7.0 16.0 0.00 0.00 0.00 47 1008.3
20260506022959 72 190 8.0 15.0 0.00 0.00 0.00 46 1008.4
20260506022000 73 226 10.0 18.0 0.00 0.00 0.00 45 1008.3
20260506021000 73 169 10.0 21.0 0.00 0.00 0.00 45 1008.2
20260506015959 73 181 10.0 23.0 0.00 0.00 0.00 45 1008.3
20260506014958 73 213 11.0 18.0 0.00 0.00 0.00 45 1008.1
20260506013959 73 196 9.0 15.0 0.00 0.00 0.00 45 1008.1
20260506012959 73 205 8.0 15.0 0.00 0.00 0.00 45 1008.0
20260506011959 73 199 9.0 14.0 0.00 0.00 0.00 43 1008.0
20260506010959 74 191 8.0 16.0 0.00 0.00 0.00 42 1007.7
20260506010001 74 191 7.0 11.0 0.00 0.00 0.00 41 1007.6
20260506004959 74 203 8.0 15.0 0.00 0.00 0.00 40 1007.6
20260506004000 75 185 9.0 17.0 0.00 0.00 0.00 39 1007.5
20260506000959 75 225 8.0 13.0 0.00 0.00 0.00 38 1007.4
20260505235957 76 238 9.0 16.0 0.00 0.00 0.00 38 1007.3
20260505234957 76 226 8.0 14.0 0.00 0.00 0.00 37 1007.2
20260505233958 76 205 11.0 20.0 0.00 0.00 0.00 38 1007.2
20260505232959 76 225 9.0 18.0 0.00 0.00 0.00 38 1007.1
20260505231957 76 242 9.0 16.0 0.00 0.00 0.00 39 1007.1
20260505230956 76 230 8.0 17.0 0.00 0.00 0.00 38 1007.0
20260505230001 76 208 12.0 21.0 0.00 0.00 0.00 38 1006.8
20260505224959 77 229 11.0 20.0 0.00 0.00 0.00 37 1006.8
20260505222958 77 225 10.0 19.0 0.00 0.00 0.00 37 1006.6
20260505221959 77 213 15.0 25.0 0.00 0.00 0.00 36 1006.6
20260505220959 78 224 11.0 24.0 0.00 0.00 0.00 36 1006.5
20260505220003 79 228 15.0 28.0 0.00 0.00 0.00 36 1006.4
20260505214959 79 223 14.0 27.0 0.00 0.00 0.00 36 1006.2
20260505213959 79 257 14.0 23.0 0.00 0.00 0.00 34 1006.2
20260505212958 79 201 12.0 25.0 0.00 0.00 0.00 34 1006.1
20260505210959 80 232 11.0 26.0 0.00 0.00 0.00 35 1006.1
20260505205958 80 227 14.0 24.0 0.00 0.00 0.00 32 1005.9
20260505201959 80 242 16.0 26.0 0.00 0.00 0.00 32 1005.9
20260505200959 80 198 14.0 25.0 0.00 0.00 0.00 31 1006.0
20260505195959 81 217 12.0 20.0 0.00 0.00 0.00 33 1006.2
20260505194958 80 224 15.0 23.0 0.00 0.00 0.00 33 1006.2
20260505193958 80 209 14.0 23.0 0.00 0.00 0.00 33 1006.2
20260505192958 80 214 14.0 24.0 0.00 0.00 0.00 34 1006.2
20260505191958 79 199 13.0 25.0 0.00 0.00 0.00 37 1006.4
20260505190959 80 190 13.0 21.0 0.00 0.00 0.00 36 1006.5
20260505185959 80 220 11.0 17.0 0.00 0.00 0.00 37 1006.6
20260505184958 80 230 12.0 24.0 0.00 0.00 0.00 34 1006.9
20260505183958 81 223 12.0 25.0 0.00 0.00 0.00 38 1006.9
20260505182958 79 245 14.0 22.0 0.00 0.00 0.00 36 1007.1
20260505181958 79 240 12.0 24.0 0.00 0.00 0.00 39 1007.3
20260505180959 79 238 9.0 20.0 0.00 0.00 0.00 41 1007.5
20260505180000 79 242 11.0 23.0 0.00 0.00 0.00 41 1007.6
20260505174959 79 209 10.0 20.0 0.00 0.00 0.00 42 1007.6
20260505173959 79 250 9.0 17.0 0.00 0.00 0.00 42 1007.7
20260505172959 78 225 13.0 23.0 0.00 0.00 0.00 43 1007.7
20260505171957 77 236 14.0 24.0 0.00 0.00 0.00 42 1007.7
20260505170958 77 211 12.0 21.0 0.00 0.00 0.00 44 1007.9
20260505165958 77 196 11.0 22.0 0.00 0.00 0.00 46 1008.1
20260505164958 76 162 12.0 22.0 0.00 0.00 0.00 46 1008.2
20260505163958 76 229 11.0 21.0 0.00 0.00 0.00 48 1008.3
20260505162958 76 203 9.0 18.0 0.00 0.00 0.00 47 1008.5
20260505161958 75 213 12.0 19.0 0.00 0.00 0.00 49 1008.6
20260505160958 75 216 11.0 18.0 0.00 0.00 0.00 49 1008.9